Location: Newark
(44.1667°N, 8.2500°E)
Time: 08:42:50
(UTC+00:00)

deb Explorer IX - Visible Passes

Search period start: 07 December 2019 00:00
Search period end: 17 December 2019 00:00
Orbit: 545 x 1105 km, 38.8° (Epoch: 06 December)

Date Brightness Start Highest point End Pass type
(mag) Time Alt. Az. Time Alt. Az. Time Alt. Az.
07 Dec ? 17:26:42 10° SW 17:32:45 43° SSE 17:36:30 24° ESE visible
07 Dec ? 19:13:03 10° WSW 19:17:52 44° SW 19:17:52 44° SW visible
08 Dec ? 17:04:41 10° SW 17:10:36 43° SSE 17:15:36 17° E visible
08 Dec ? 18:50:59 10° WSW 18:56:58 55° SSW 18:56:58 55° SSW visible
08 Dec ? 20:38:00 10° W 20:38:20 11° W 20:38:20 11° W visible
09 Dec ? 16:42:40 10° SW 16:48:27 43° SSE 16:54:43 11° E visible
09 Dec ? 18:28:57 10° WSW 18:35:23 56° S 18:36:05 54° SSE visible
09 Dec ? 20:15:54 10° W 20:17:27 17° W 20:17:27 17° W visible
10 Dec ? 16:20:42 10° SW 16:26:18 42° SSE 16:32:42 10° E visible
10 Dec ? 18:06:55 10° WSW 18:13:13 56° S 18:15:13 42° SE visible
10 Dec ? 19:53:50 10° W 19:56:35 24° WSW 19:56:35 24° WSW visible
11 Dec ? 17:44:54 10° WSW 17:51:02 55° S 17:54:22 30° ESE visible
11 Dec ? 19:31:46 10° W 19:35:45 32° WSW 19:35:45 32° WSW visible
12 Dec ? 17:22:55 10° WSW 17:28:52 54° S 17:33:35 20° ESE visible
12 Dec ? 19:09:43 10° W 19:14:58 38° SW 19:14:58 38° SW visible
13 Dec ? 17:00:55 10° WSW 17:06:43 54° S 17:12:52 12° ESE visible
13 Dec ? 18:47:42 10° W 18:53:38 39° SSW 18:54:16 38° S visible
14 Dec ? 16:38:57 10° WSW 16:44:35 53° S 16:51:06 10° ESE visible
14 Dec ? 18:25:41 10° W 18:31:28 38° SSW 18:33:39 30° SSE visible
14 Dec ? 20:13:49 10° WSW 20:15:02 13° WSW 20:15:02 13° WSW visible
15 Dec ? 16:17:00 10° WSW 16:22:27 52° S 16:28:49 10° ESE visible
15 Dec ? 18:03:41 10° W 18:09:17 37° SSW 18:13:10 21° SSE visible
15 Dec ? 19:51:51 10° WSW 19:54:34 16° SW 19:54:34 16° SW visible
16 Dec ? 17:41:42 10° W 17:47:08 36° SSW 17:52:52 11° SE visible
16 Dec ? 19:29:56 10° WSW 19:33:37 16° SW 19:34:16 15° SSW visible
